Location: Eferding
(48.3167°N, 14.0167°E)
Time: 12:42:44
(UTC+00:00)

Cosmos 1633 - Pass Details

Date: 12 November 2019
Orbit: 465 x 482 km, 82.5° (Epoch: 06 December)

Event Time Altitude Azimuth Distance (km) Brightness Sun altitude
Rises 16:10:37 0° 8° (N) 2,560 6.0 -7.1°
Reaches altitude 10° 16:13:48 10° 39° (NE) 1,673 4.8 -7.7°
Maximum altitude 16:15:28 13° 66° (ENE) 1,514 4.4 -7.9°
Drops below altitude 10° 16:17:06 10° 93° (E) 1,666 4.7 -8.2°
Enters shadow 16:18:21 - 108° (ESE) 1,948 5.1 -8.4°
